SCP
0 0 0 0 0 0 0 0 0 0 0 0 0 0 0 0 0 0 0 0 0 0 0 0 0 0 0 0 0 0 0 0 0 0 0 0 0 0
0 0 0 0 0 0 0 0 0 0 0 0 0 0 0 0 0 0 0 0 0 0 0 0 0 0 0 0 0 0 0 0 0 0 0 0 0 0
0 0 0 0 0 0 0 0 0 0 0 0 0 0 0 0 0 0 0 0 0 0 0 0 0 0 0 0 0 0 0 0 0 0 0 0 0 0
0 0 0 0 0 0 0 0 0 0 0 0 0 0 0 0 0 0 0 0 0 0 0 0 0 0 0 0 0 0 0 0 0 0 0 0 0 0
0 0 0 0 0 0 0 0 0 0 0 0 0 0 0 0 0 0 0 0 0 0 0 0 0 0 0 0 0 0 0 0 0 0 -0 0 0 -0
0 0 0 0 0 0 0 0 0 0 0 0 0 0 0 0 0 0 0 0 0 0 0 0 0 0 0 -0 0 0 0 0 0 0 0 -0 -0 -0
0 0 0 0 0 0 0 0 0 0 0 0 0 0 0 0 0 0 0 0 0 0 0 0 0 0 0 0 0 0 0 -0 -0 0 -0 -0 -0 -0
0 0 0 0 0 0 0 0 0 0 0 0 0 0 0 0 0 0 0 0 0 0 0 0 0 0 0 0 0 -0 0 0 -0 -0 -0 -0 -0 -0
0 0 0 0 0 0 0 0 0 0 0 0 0 0 0 0 0 0 0 0 0 0 0 0 0 0 0 0 0 -0 -0 -0 -0 -0 -0 -0 -0 -0
0 0 0 0 0 0 0 0 0 0 0 0 0 0 0 0 0 0 0 0 0 0 0 0 0 0 0 0 0 -0 -0 0 0 -0 -0 -0 -0 -0
0 0 0 0 0 0 0 0 0 0 0 0 0 0 0 0 0 0 0 0 0 0 0 0 0 0 0 0 0 0 0 0 0 0 0 -0 -0 -0
0 0 0 0 0 0 0 0 0 0 0 0 0 0 0 0 0 0 0 0 0 0 0 0 0 0 0 0 0 0 0 0 0 0 -0 0 -0 0
0 0 0 0 0 0 0 0 0 0 0 0 0 0 0 0 0 0 0 0 0 0 0 0 0 0 0 0 0 0 0 0 0 0 0 -0 -0 0
-0 0 0 0 0 0 0 0 0 0 0 0 0 0 0 0 0 0 0 0 0 0 0 0 0 0 0 0 0 0 0 0 0 0 0 0 0 -0
0 0 0 0 0 0 0 0 0 0 0 0 0 0 0 0 0 0 0 0 0 0 0 0 0 0 0 0 0 0 0 0 0 0 0 0 0 -0
0 0 0 0 0 0 0 0 0 0 0 0 0 0 0 0 0 0 0 0 0 0 0 0 0 0 0 0 0 0 0 0 0 0 0 0 0 0
0 0 0 0 0 0 -0 0 0 0 0 0 0 0 0 0 0 0 0 0 0 0 0 0 0 0 0 0 0 0 0 0 0 0 0 0 0 0
0 0 0 0 0 0 -0 0 0 0 0 0 0 0 0 0 0 0 0 0 0 0 0 0 0 0 0 0 0 0 0 0 0 0 0 0 0 0
0 0 0 0 0 -0 -0 -0 0 0 0 0 0 0 0 0 0 0 0 0 0 0 0 0 0 0 0 0 0 0 0 0 0 0 0 0 0 0
0 0 0 0 0 0 -0 0 0 0 0 0 0 0 0 0 0 0 0 0 0 0 0 0 -0 0 0 0 0 0 0 0 0 0 0 0 0 0
0 0 0 0 0 0 0 0 0 0 0 0 0 0 0 0 0 0 -0 0 0 0 0 0 -0 0 0 0 0 0 0 0 0 0 0 0 0 0
0 0 0 0 0 0 0 0 0 0 0 0 0 0 0 0 0 0 0 0 0 0 0 0 -0 -0 0 0 0 0 0 0 0 0 0 0 0 0
0 0 0 0 0 0 0 0 0 0 0 0 0 0 0 -0 0 0 0 0 0 -0 0 0 -0 -0 -0 -0 0 0 0 0 0 0 0 0 0 0
Wind_Speed_500mb
22 16 13 6 4 4 4 7 6 5 6 14 28 28 36 32 29 35 54 62 64 54 43 51 60 51 56 54 45 38 33 35 36 36 33 37 37 36
25 20 13 5 3 6 3 6 7 7 4 20 24 35 32 35 35 51 62 67 53 44 47 49 48 51 57 42 39 39 38 37 37 38 39 41 43 41
27 19 9 4 4 2 2 4 4 8 15 19 17 27 35 44 56 61 49 43 45 43 39 39 50 55 36 37 42 47 43 38 40 36 43 45 49 49
29 19 13 7 5 6 8 11 13 13 17 21 20 30 43 49 46 41 42 44 50 47 44 47 42 30 29 33 38 45 40 37 30 42 47 50 53 51
21 10 8 7 8 10 12 12 13 16 19 16 23 33 42 53 48 50 50 45 50 50 42 43 37 36 37 34 39 29 26 33 39 44 48 50 49 53
17 13 14 15 14 15 13 15 18 21 27 28 37 44 59 65 63 68 61 52 57 49 48 45 48 41 29 19 14 18 28 39 40 38 38 42 47 51
23 21 18 17 13 14 14 16 21 28 33 42 50 55 64 75 71 68 66 71 60 57 58 47 58 46 28 22 25 31 43 43 34 33 41 46 52 52
27 25 22 19 15 13 17 19 26 30 36 41 44 46 54 67 61 66 65 71 70 57 67 57 69 61 32 41 32 32 38 36 31 38 45 50 51 50
31 28 24 22 20 19 21 25 33 35 37 35 36 34 52 56 56 60 58 58 59 53 63 66 71 66 35 53 41 28 23 23 38 39 42 47 50 45
31 28 25 25 26 23 26 29 36 35 23 25 26 40 54 48 53 47 52 57 50 44 55 62 72 72 47 63 43 35 29 31 40 40 44 46 45 35
36 34 32 34 31 28 27 31 30 32 23 19 37 50 50 40 45 47 52 55 56 54 55 64 73 80 61 69 58 52 41 47 47 41 41 38 41 23
41 41 38 38 36 37 37 32 29 34 25 28 38 45 36 34 40 40 41 46 48 41 54 60 65 63 47 72 59 55 52 59 50 39 40 46 49 29
41 41 42 46 43 41 43 33 29 18 21 32 47 46 49 48 44 39 39 38 38 40 42 43 59 57 50 71 70 61 61 58 51 46 48 50 40 42
46 46 45 41 36 36 41 33 26 17 28 43 49 57 58 58 54 46 43 37 28 31 36 39 46 45 46 61 68 68 53 55 54 53 47 48 57 56
47 46 39 37 32 31 38 37 28 32 41 52 54 55 54 56 60 59 52 45 30 32 34 37 38 37 37 43 60 67 65 55 58 53 49 59 59 53
41 33 32 31 29 31 41 45 32 38 48 51 51 51 53 59 65 64 61 50 48 43 41 38 37 33 41 46 59 71 58 59 54 47 49 53 57 56
31 29 31 35 35 36 46 48 40 43 50 53 54 58 60 60 67 69 61 55 52 54 52 45 44 41 42 53 57 65 64 60 52 61 49 63 61 55
31 35 38 40 39 37 47 50 47 45 47 51 56 60 66 63 65 70 65 57 53 53 53 51 55 53 52 51 58 66 60 61 64 59 52 64 71 69
39 39 39 38 37 35 47 50 49 44 42 45 55 57 69 63 63 73 70 61 54 51 48 48 50 51 57 58 55 57 60 64 65 59 61 68 79 69
38 36 36 31 30 36 44 48 46 43 43 49 53 56 62 63 58 66 68 61 54 51 48 43 43 45 44 41 50 52 54 60 67 72 69 63 77 78
35 34 31 29 32 35 37 42 45 51 48 51 55 58 58 61 56 59 61 58 56 52 51 45 40 40 43 47 48 50 48 51 56 64 67 71 81 92
29 28 32 37 37 37 37 40 43 48 56 55 57 62 57 53 56 59 54 57 60 57 49 42 36 38 42 51 52 52 53 45 47 53 52 57 72 76
26 30 35 37 39 41 42 41 41 43 54 57 53 56 58 52 55 60 49 52 56 59 54 47 42 41 45 52 53 52 54 54 56 55 57 58 64 70
Wind_Direction_500mb
206 206 212 241 278 257 231 274 338 318 312 292 353 11 355 338 330 317 321 330 327 328 317 319 318 316 315 307 306 305 315 319 323 324 330 328 325 321
194 195 204 199 250 255 231 238 313 311 348 359 16 7 338 333 325 321 324 323 325 329 318 311 312 320 316 313 304 301 301 301 307 313 321 320 315 319
185 185 170 184 241 275 245 10 347 8 17 28 25 348 324 320 321 328 338 343 343 340 337 321 319 318 311 306 308 300 296 300 300 310 314 308 312 315
162 155 154 149 154 131 79 59 43 26 12 7 354 332 332 336 342 351 357 351 349 351 350 343 337 330 320 313 320 314 304 295 302 304 305 310 310 307
156 154 119 118 132 83 73 55 45 32 22 7 356 347 354 1 358 1 7 2 1 357 3 358 350 332 320 320 329 340 308 299 300 299 303 306 309 308
132 118 125 116 87 70 56 44 35 33 31 23 13 7 8 4 1 360 359 5 0 5 10 357 2 356 356 348 349 337 326 316 310 308 309 314 313 305
129 130 116 93 71 60 43 25 33 32 31 27 20 9 4 360 1 356 351 349 3 359 3 359 7 6 4 350 336 332 335 324 317 320 318 314 312 312
126 107 91 82 77 44 20 30 32 32 30 26 11 359 355 353 351 352 351 351 354 356 347 8 5 8 6 2 347 331 333 320 321 322 323 317 309 306
97 92 90 79 60 48 46 46 46 51 33 10 7 355 350 351 346 348 352 352 348 353 348 355 3 5 18 7 357 349 1 338 335 335 328 327 318 318
101 91 84 77 68 66 68 61 60 54 19 16 15 354 348 344 347 348 350 348 353 354 351 341 1 359 18 18 19 20 2 346 346 344 339 330 319 323
97 87 81 78 71 70 69 68 63 53 26 16 2 352 343 342 351 346 353 355 352 355 358 348 360 356 19 20 17 11 10 360 358 356 348 342 335 349
99 89 79 72 68 57 51 55 59 44 21 357 350 353 3 3 3 9 2 353 353 344 359 349 356 3 345 10 12 13 12 10 14 22 37 26 23 31
95 85 75 67 57 46 42 49 48 41 11 359 2 12 20 20 18 16 15 5 352 350 355 350 349 356 347 346 5 12 11 17 30 39 38 32 28 29
92 84 74 68 53 40 35 37 50 33 16 13 17 26 23 22 19 19 18 19 14 2 3 0 351 356 353 353 0 9 29 33 33 25 40 24 28 27
90 84 77 69 58 35 32 35 47 29 20 20 29 32 28 24 22 20 25 23 33 21 20 10 2 5 12 7 6 12 14 27 28 28 30 24 21 12
100 93 85 82 61 39 33 36 49 32 27 36 33 32 30 27 26 25 20 22 21 33 34 30 21 18 17 21 23 21 24 15 18 15 29 27 14 5
107 102 91 78 62 39 33 34 39 38 41 39 35 31 28 25 28 26 24 20 22 19 24 32 39 38 29 24 24 22 24 23 27 21 31 27 19 20
109 94 87 75 61 40 34 34 43 47 41 37 33 32 25 23 25 29 25 23 22 22 22 22 26 35 36 37 26 19 25 22 19 24 28 29 24 24
98 88 88 79 66 44 39 41 50 46 41 41 39 31 23 23 25 27 22 23 26 25 23 24 26 26 24 20 32 27 23 32 34 28 28 36 30 29
92 91 85 81 69 52 47 52 52 48 46 46 43 38 25 23 25 24 21 22 24 21 25 26 30 31 25 16 13 32 29 30 30 29 33 37 39 38
90 85 81 74 64 56 60 58 54 49 48 45 43 39 27 22 26 23 21 26 30 29 25 29 31 32 36 36 35 33 36 33 36 29 22 29 34 39
94 86 76 72 67 61 63 57 53 49 47 44 42 36 31 27 27 23 24 28 29 33 33 34 40 38 39 41 38 36 30 39 42 46 42 42 45 44
90 84 81 75 71 65 61 57 52 49 46 43 39 33 31 31 32 26 31 36 34 35 37 45 46 49 50 46 42 42 41 43 48 47 50 60 71 70
Wind_Speed_850mb
22 16 13 6 4 4 4 7 6 5 6 14 28 28 36 32 29 35 54 62 64 54 43 51 60 51 56 54 45 38 33 35 36 36 33 37 37 36
25 20 13 5 3 6 3 6 7 7 4 20 24 35 32 35 35 51 62 67 53 44 47 49 48 51 57 42 39 39 38 37 37 38 39 41 43 41
27 19 9 4 4 2 2 4 4 8 15 19 17 27 35 44 56 61 49 43 45 43 39 39 50 55 36 37 42 47 43 38 40 36 43 45 49 49
29 19 13 7 5 6 8 11 13 13 17 21 20 30 43 49 46 41 42 44 50 47 44 47 42 30 29 33 38 45 40 37 30 42 47 50 53 51
21 10 8 7 8 10 12 12 13 16 19 16 23 33 42 53 48 50 50 45 50 50 42 43 37 36 37 34 39 29 26 33 39 44 48 50 49 53
17 13 14 15 14 15 13 15 18 21 27 28 37 44 59 65 63 68 61 52 57 49 48 45 48 41 29 19 14 18 28 39 40 38 38 42 47 51
23 21 18 17 13 14 14 16 21 28 33 42 50 55 64 75 71 68 66 71 60 57 58 47 58 46 28 22 25 31 43 43 34 33 41 46 52 52
27 25 22 19 15 13 17 19 26 30 36 41 44 46 54 67 61 66 65 71 70 57 67 57 69 61 32 41 32 32 38 36 31 38 45 50 51 50
31 28 24 22 20 19 21 25 33 35 37 35 36 34 52 56 56 60 58 58 59 53 63 66 71 66 35 53 41 28 23 23 38 39 42 47 50 45
31 28 25 25 26 23 26 29 36 35 23 25 26 40 54 48 53 47 52 57 50 44 55 62 72 72 47 63 43 35 29 31 40 40 44 46 45 35
36 34 32 34 31 28 27 31 30 32 23 19 37 50 50 40 45 47 52 55 56 54 55 64 73 80 61 69 58 52 41 47 47 41 41 38 41 23
41 41 38 38 36 37 37 32 29 34 25 28 38 45 36 34 40 40 41 46 48 41 54 60 65 63 47 72 59 55 52 59 50 39 40 46 49 29
41 41 42 46 43 41 43 33 29 18 21 32 47 46 49 48 44 39 39 38 38 40 42 43 59 57 50 71 70 61 61 58 51 46 48 50 40 42
46 46 45 41 36 36 41 33 26 17 28 43 49 57 58 58 54 46 43 37 28 31 36 39 46 45 46 61 68 68 53 55 54 53 47 48 57 56
47 46 39 37 32 31 38 37 28 32 41 52 54 55 54 56 60 59 52 45 30 32 34 37 38 37 37 43 60 67 65 55 58 53 49 59 59 53
41 33 32 31 29 31 41 45 32 38 48 51 51 51 53 59 65 64 61 50 48 43 41 38 37 33 41 46 59 71 58 59 54 47 49 53 57 56
31 29 31 35 35 36 46 48 40 43 50 53 54 58 60 60 67 69 61 55 52 54 52 45 44 41 42 53 57 65 64 60 52 61 49 63 61 55
31 35 38 40 39 37 47 50 47 45 47 51 56 60 66 63 65 70 65 57 53 53 53 51 55 53 52 51 58 66 60 61 64 59 52 64 71 69
39 39 39 38 37 35 47 50 49 44 42 45 55 57 69 63 63 73 70 61 54 51 48 48 50 51 57 58 55 57 60 64 65 59 61 68 79 69
38 36 36 31 30 36 44 48 46 43 43 49 53 56 62 63 58 66 68 61 54 51 48 43 43 45 44 41 50 52 54 60 67 72 69 63 77 78
35 34 31 29 32 35 37 42 45 51 48 51 55 58 58 61 56 59 61 58 56 52 51 45 40 40 43 47 48 50 48 51 56 64 67 71 81 92
29 28 32 37 37 37 37 40 43 48 56 55 57 62 57 53 56 59 54 57 60 57 49 42 36 38 42 51 52 52 53 45 47 53 52 57 72 76
26 30 35 37 39 41 42 41 41 43 54 57 53 56 58 52 55 60 49 52 56 59 54 47 42 41 45 52 53 52 54 54 56 55 57 58 64 70
Wind_Direction_850mb
206 206 212 241 278 257 231 274 338 318 312 292 353 11 355 338 330 317 321 330 327 328 317 319 318 316 315 307 306 305 315 319 323 324 330 328 325 321
194 195 204 199 250 255 231 238 313 311 348 359 16 7 338 333 325 321 324 323 325 329 318 311 312 320 316 313 304 301 301 301 307 313 321 320 315 319
185 185 170 184 241 275 245 10 347 8 17 28 25 348 324 320 321 328 338 343 343 340 337 321 319 318 311 306 308 300 296 300 300 310 314 308 312 315
162 155 154 149 154 131 79 59 43 26 12 7 354 332 332 336 342 351 357 351 349 351 350 343 337 330 320 313 320 314 304 295 302 304 305 310 310 307
156 154 119 118 132 83 73 55 45 32 22 7 356 347 354 1 358 1 7 2 1 357 3 358 350 332 320 320 329 340 308 299 300 299 303 306 309 308
132 118 125 116 87 70 56 44 35 33 31 23 13 7 8 4 1 360 359 5 0 5 10 357 2 356 356 348 349 337 326 316 310 308 309 314 313 305
129 130 116 93 71 60 43 25 33 32 31 27 20 9 4 360 1 356 351 349 3 359 3 359 7 6 4 350 336 332 335 324 317 320 318 314 312 312
126 107 91 82 77 44 20 30 32 32 30 26 11 359 355 353 351 352 351 351 354 356 347 8 5 8 6 2 347 331 333 320 321 322 323 317 309 306
97 92 90 79 60 48 46 46 46 51 33 10 7 355 350 351 346 348 352 352 348 353 348 355 3 5 18 7 357 349 1 338 335 335 328 327 318 318
101 91 84 77 68 66 68 61 60 54 19 16 15 354 348 344 347 348 350 348 353 354 351 341 1 359 18 18 19 20 2 346 346 344 339 330 319 323
97 87 81 78 71 70 69 68 63 53 26 16 2 352 343 342 351 346 353 355 352 355 358 348 360 356 19 20 17 11 10 360 358 356 348 342 335 349
99 89 79 72 68 57 51 55 59 44 21 357 350 353 3 3 3 9 2 353 353 344 359 349 356 3 345 10 12 13 12 10 14 22 37 26 23 31
95 85 75 67 57 46 42 49 48 41 11 359 2 12 20 20 18 16 15 5 352 350 355 350 349 356 347 346 5 12 11 17 30 39 38 32 28 29
92 84 74 68 53 40 35 37 50 33 16 13 17 26 23 22 19 19 18 19 14 2 3 0 351 356 353 353 0 9 29 33 33 25 40 24 28 27
90 84 77 69 58 35 32 35 47 29 20 20 29 32 28 24 22 20 25 23 33 21 20 10 2 5 12 7 6 12 14 27 28 28 30 24 21 12
100 93 85 82 61 39 33 36 49 32 27 36 33 32 30 27 26 25 20 22 21 33 34 30 21 18 17 21 23 21 24 15 18 15 29 27 14 5
107 102 91 78 62 39 33 34 39 38 41 39 35 31 28 25 28 26 24 20 22 19 24 32 39 38 29 24 24 22 24 23 27 21 31 27 19 20
109 94 87 75 61 40 34 34 43 47 41 37 33 32 25 23 25 29 25 23 22 22 22 22 26 35 36 37 26 19 25 22 19 24 28 29 24 24
98 88 88 79 66 44 39 41 50 46 41 41 39 31 23 23 25 27 22 23 26 25 23 24 26 26 24 20 32 27 23 32 34 28 28 36 30 29
92 91 85 81 69 52 47 52 52 48 46 46 43 38 25 23 25 24 21 22 24 21 25 26 30 31 25 16 13 32 29 30 30 29 33 37 39 38
90 85 81 74 64 56 60 58 54 49 48 45 43 39 27 22 26 23 21 26 30 29 25 29 31 32 36 36 35 33 36 33 36 29 22 29 34 39
94 86 76 72 67 61 63 57 53 49 47 44 42 36 31 27 27 23 24 28 29 33 33 34 40 38 39 41 38 36 30 39 42 46 42 42 45 44
90 84 81 75 71 65 61 57 52 49 46 43 39 33 31 31 32 26 31 36 34 35 37 45 46 49 50 46 42 42 41 43 48 47 50 60 71 70